| time (UTC) | temp F | wind direction | speed MPH | gust MPH | rain 1hr in | rain 24hr in | rain mn in | humidity % | barometer mb |
| 20260506012003 | 65 | 360 | 5.0 | 7.0 | 0.00 | 0.00 | 0.00 | 85 | 1008.0 |
| 20260506011505 | 65 | 22 | 5.0 | 7.0 | 0.00 | 0.00 | 0.00 | 85 | 1007.3 |
| 20260506011003 | 65 | 337 | 7.0 | 10.0 | 0.00 | 0.00 | 0.00 | 85 | 1007.3 |
| 20260506010505 | 66 | 337 | 10.0 | 15.0 | 0.00 | 0.00 | 0.00 | 84 | 1006.6 |
| 20260506010002 | 66 | 337 | 11.0 | 16.0 | 0.00 | 0.00 | 0.00 | 83 | 1006.6 |
| 20260506005506 | 66 | 360 | 10.0 | 16.0 | 0.00 | 0.00 | 0.00 | 83 | 1007.0 |
| 20260506005003 | 66 | 337 | 11.0 | 15.0 | 0.00 | 0.00 | 0.00 | 83 | 1007.0 |
| 20260506004505 | 66 | 22 | 10.0 | 14.0 | 0.00 | 0.00 | 0.00 | 82 | 1006.6 |
| 20260506004002 | 66 | 337 | 12.0 | 15.0 | 0.00 | 0.00 | 0.00 | 82 | 1006.6 |
| 20260506003505 | 67 | 337 | 15.0 | 22.0 | 0.00 | 0.00 | 0.00 | 81 | 1006.3 |
| 20260506003008 | 68 | 337 | 11.0 | 14.0 | 0.00 | 0.00 | 0.00 | 82 | 1006.3 |
| 20260506002504 | 68 | 337 | 12.0 | 16.0 | 0.00 | 0.00 | 0.00 | 80 | 1005.6 |
| 20260506002007 | 68 | 337 | 11.0 | 14.0 | 0.00 | 0.00 | 0.00 | 80 | 1005.6 |
| 20260506001505 | 69 | 337 | 10.0 | 13.0 | 0.00 | 0.00 | 0.00 | 79 | 1006.3 |
| 20260506001007 | 69 | 337 | 12.0 | 19.0 | 0.00 | 0.00 | 0.00 | 79 | 1006.3 |
| 20260506000504 | 69 | 337 | 13.0 | 18.0 | 0.00 | 0.00 | 0.00 | 79 | 1006.0 |
| 20260506000007 | 70 | 337 | 10.0 | 15.0 | 0.00 | 0.00 | 0.00 | 79 | 1006.0 |
| 20260505235504 | 70 | 337 | 13.0 | 16.0 | 0.00 | 0.00 | 0.00 | 77 | 1005.6 |
| 20260505235008 | 70 | 360 | 14.0 | 19.0 | 0.00 | 0.00 | 0.00 | 77 | 1005.6 |
| 20260505234531 | 70 | 337 | 12.0 | 15.0 | 0.00 | 0.00 | 0.00 | 76 | 1005.3 |
| 20260505234008 | 71 | 337 | 15.0 | 19.0 | 0.00 | 0.00 | 0.00 | 76 | 1005.3 |
| 20260505233525 | 71 | 337 | 12.0 | 15.0 | 0.00 | 0.00 | 0.00 | 77 | 1004.9 |
| 20260505233005 | 71 | 337 | 13.0 | 18.0 | 0.00 | 0.00 | 0.00 | 75 | 1004.9 |
| 20260505232510 | 71 | 337 | 11.0 | 15.0 | 0.00 | 0.00 | 0.00 | 76 | 1004.9 |
| 20260505232006 | 72 | 337 | 9.0 | 12.0 | 0.00 | 0.00 | 0.00 | 76 | 1004.9 |
| 20260505231508 | 72 | 315 | 11.0 | 17.0 | 0.00 | 0.00 | 0.00 | 73 | 1004.3 |
| 20260505231004 | 73 | 337 | 14.0 | 20.0 | 0.00 | 0.00 | 0.00 | 73 | 1004.3 |
| 20260505230507 | 73 | 337 | 13.0 | 16.0 | 0.00 | 0.00 | 0.00 | 73 | 1004.3 |
| 20260505230004 | 74 | 337 | 14.0 | 18.0 | 0.00 | 0.00 | 0.00 | 71 | 1004.3 |
| 20260505225503 | 75 | 337 | 12.0 | 16.0 | 0.00 | 0.00 | 0.00 | 67 | 1003.9 |
| 20260505225005 | 75 | 337 | 15.0 | 20.0 | 0.00 | 0.00 | 0.00 | 65 | 1003.9 |
| 20260505224503 | 76 | 337 | 16.0 | 20.0 | 0.00 | 0.00 | 0.00 | 66 | 1003.3 |
| 20260505224006 | 76 | 315 | 12.0 | 15.0 | 0.00 | 0.00 | 0.00 | 67 | 1003.3 |
| 20260505223502 | 77 | 315 | 15.0 | 19.0 | 0.00 | 0.00 | 0.00 | 66 | 1002.9 |
| 20260505223006 | 77 | 337 | 12.0 | 15.0 | 0.00 | 0.00 | 0.00 | 66 | 1002.9 |
| 20260505222502 | 77 | 315 | 12.0 | 16.0 | 0.00 | 0.00 | 0.00 | 66 | 1002.2 |
| 20260505222005 | 78 | 315 | 12.0 | 19.0 | 0.00 | 0.00 | 0.00 | 64 | 1002.2 |
| 20260505221503 | 79 | 337 | 14.0 | 19.0 | 0.00 | 0.00 | 0.00 | 62 | 1002.2 |
| 20260505221006 | 79 | 292 | 11.0 | 14.0 | 0.00 | 0.00 | 0.00 | 63 | 1002.2 |
| 20260505220503 | 79 | 337 | 11.0 | 14.0 | 0.00 | 0.00 | 0.00 | 62 | 1001.6 |
| 20260505220006 | 80 | 315 | 11.0 | 14.0 | 0.00 | 0.00 | 0.00 | 62 | 1001.6 |
| 20260505215503 | 81 | 315 | 12.0 | 14.0 | 0.00 | 0.00 | 0.00 | 59 | 1001.6 |
| 20260505215006 | 81 | 315 | 10.0 | 14.0 | 0.00 | 0.00 | 0.00 | 59 | 1001.6 |
| 20260505214503 | 81 | 315 | 13.0 | 18.0 | 0.00 | 0.00 | 0.00 | 56 | 1001.9 |
| 20260505214032 | 80 | 315 | 12.0 | 16.0 | 0.00 | 0.00 | 0.00 | 56 | 1001.9 |
| 20260505213503 | 80 | 292 | 11.0 | 13.0 | 0.00 | 0.00 | 0.00 | 59 | 1001.6 |
| 20260505213006 | 81 | 315 | 11.0 | 13.0 | 0.00 | 0.00 | 0.00 | 57 | 1001.6 |
| 20260505212503 | 82 | 315 | 11.0 | 14.0 | 0.00 | 0.00 | 0.00 | 56 | 1001.2 |
| 20260505212005 | 82 | 337 | 13.0 | 17.0 | 0.00 | 0.00 | 0.00 | 54 | 1001.2 |
| 20260505211503 | 82 | 315 | 16.0 | 19.0 | 0.00 | 0.00 | 0.00 | 52 | 1001.2 |
| 20260505211006 | 82 | 315 | 13.0 | 16.0 | 0.00 | 0.00 | 0.00 | 50 | 1001.2 |
| 20260505210508 | 82 | 315 | 15.0 | 18.0 | 0.00 | 0.00 | 0.00 | 48 | 1001.6 |
| 20260505210006 | 83 | 292 | 14.0 | 18.0 | 0.00 | 0.00 | 0.00 | 46 | 1001.6 |
| 20260505205508 | 83 | 315 | 12.0 | 16.0 | 0.00 | 0.00 | 0.00 | 49 | 1001.6 |
| 20260505205006 | 83 | 292 | 13.0 | 19.0 | 0.00 | 0.00 | 0.00 | 44 | 1001.6 |
| 20260505204502 | 82 | 292 | 12.0 | 16.0 | 0.00 | 0.00 | 0.00 | 46 | 1001.6 |
| 20260505204005 | 82 | 337 | 14.0 | 18.0 | 0.00 | 0.00 | 0.00 | 46 | 1001.6 |
| 20260505203503 | 83 | 292 | 16.0 | 20.0 | 0.00 | 0.00 | 0.00 | 44 | 1000.9 |
| 20260505203005 | 83 | 315 | 16.0 | 19.0 | 0.00 | 0.00 | 0.00 | 47 | 1000.9 |
| 20260505202505 | 83 | 315 | 17.0 | 21.0 | 0.00 | 0.00 | 0.00 | 47 | 1001.2 |
| 20260505202008 | 84 | 292 | 21.0 | 27.0 | 0.00 | 0.00 | 0.00 | 47 | 1001.2 |
| 20260505201507 | 85 | 247 | 13.0 | 17.0 | 0.00 | 0.00 | 0.00 | 47 | 1001.6 |
| 20260505201004 | 85 | 247 | 12.0 | 17.0 | 0.00 | 0.00 | 0.00 | 46 | 1001.6 |
| 20260505200507 | 84 | 270 | 14.0 | 20.0 | 0.00 | 0.00 | 0.00 | 47 | 1001.2 |
| 20260505200004 | 85 | 247 | 14.0 | 19.0 | 0.00 | 0.00 | 0.00 | 47 | 1001.2 |
| 20260505195508 | 85 | 225 | 10.0 | 19.0 | 0.00 | 0.00 | 0.00 | 52 | 1001.2 |
| 20260505195005 | 85 | 202 | 12.0 | 15.0 | 0.00 | 0.00 | 0.00 | 56 | 1001.2 |
| 20260505194508 | 85 | 225 | 11.0 | 17.0 | 0.00 | 0.00 | 0.00 | 58 | 1001.6 |
| 20260505194004 | 84 | 247 | 15.0 | 19.0 | 0.00 | 0.00 | 0.00 | 62 | 1001.6 |
| 20260505193533 | 84 | 202 | 11.0 | 12.0 | 0.00 | 0.00 | 0.00 | 62 | 1001.6 |
| 20260505193003 | 84 | 202 | 11.0 | 13.0 | 0.00 | 0.00 | 0.00 | 62 | 1001.6 |
| 20260505192506 | 85 | 202 | 11.0 | 18.0 | 0.00 | 0.00 | 0.00 | 61 | 1001.2 |
| 20260505192009 | 85 | 202 | 11.0 | 15.0 | 0.00 | 0.00 | 0.00 | 63 | 1001.2 |
| 20260505191505 | 84 | 202 | 16.0 | 20.0 | 0.00 | 0.00 | 0.00 | 61 | 1001.6 |
| 20260505191002 | 85 | 202 | 16.0 | 19.0 | 0.00 | 0.00 | 0.00 | 61 | 1001.6 |
| 20260505190505 | 84 | 202 | 15.0 | 20.0 | 0.00 | 0.00 | 0.00 | 61 | 1001.6 |
| 20260505190008 | 84 | 202 | 16.0 | 20.0 | 0.00 | 0.00 | 0.00 | 61 | 1001.6 |
| 20260505185504 | 83 | 202 | 18.0 | 22.0 | 0.00 | 0.00 | 0.00 | 60 | 1001.6 |
| 20260505185006 | 83 | 202 | 16.0 | 19.0 | 0.00 | 0.00 | 0.00 | 59 | 1001.6 |
| 20260505184503 | 83 | 202 | 14.0 | 18.0 | 0.00 | 0.00 | 0.00 | 61 | 1001.6 |
| 20260505184005 | 83 | 202 | 16.0 | 19.0 | 0.00 | 0.00 | 0.00 | 58 | 1001.6 |
| 20260505183507 | 83 | 202 | 14.0 | 19.0 | 0.00 | 0.00 | 0.00 | 59 | 1001.6 |
| 20260505183005 | 83 | 202 | 16.0 | 20.0 | 0.00 | 0.00 | 0.00 | 59 | 1001.6 |
| 20260505182507 | 83 | 202 | 13.0 | 16.0 | 0.00 | 0.00 | 0.00 | 64 | 1001.6 |
| 20260505182004 | 83 | 180 | 12.0 | 17.0 | 0.00 | 0.00 | 0.00 | 65 | 1001.6 |
| 20260505181506 | 83 | 225 | 10.0 | 12.0 | 0.00 | 0.00 | 0.00 | 67 | 1001.9 |
| 20260505181004 | 83 | 202 | 12.0 | 14.0 | 0.00 | 0.00 | 0.00 | 67 | 1001.9 |
| 20260505180506 | 82 | 202 | 11.0 | 13.0 | 0.00 | 0.00 | 0.00 | 68 | 1002.2 |
| 20260505180003 | 81 | 202 | 12.0 | 17.0 | 0.00 | 0.00 | 0.00 | 69 | 1002.2 |
| 20260505175506 | 81 | 202 | 15.0 | 18.0 | 0.00 | 0.00 | 0.00 | 68 | 1002.2 |
| 20260505175003 | 81 | 202 | 15.0 | 19.0 | 0.00 | 0.00 | 0.00 | 70 | 1002.2 |
| 20260505174506 | 81 | 202 | 14.0 | 20.0 | 0.00 | 0.00 | 0.00 | 70 | 1002.2 |
| 20260505174003 | 80 | 202 | 16.0 | 19.0 | 0.00 | 0.00 | 0.00 | 71 | 1002.2 |
| 20260505173507 | 80 | 202 | 12.0 | 16.0 | 0.00 | 0.00 | 0.00 | 74 | 1002.6 |
| 20260505173029 | 80 | 180 | 13.0 | 17.0 | 0.00 | 0.00 | 0.00 | 74 | 1002.6 |
| 20260505172507 | 79 | 202 | 18.0 | 21.0 | 0.00 | 0.00 | 0.00 | 74 | 1002.2 |
| 20260505172004 | 79 | 180 | 18.0 | 23.0 | 0.00 | 0.00 | 0.00 | 74 | 1002.2 |
| 20260505171506 | 79 | 202 | 16.0 | 21.0 | 0.00 | 0.00 | 0.00 | 74 | 1002.9 |
| 20260505171004 | 79 | 180 | 16.0 | 19.0 | 0.00 | 0.00 | 0.00 | 76 | 1002.9 |
| 20260505170506 | 78 | 180 | 14.0 | 20.0 | 0.00 | 0.00 | 0.00 | 76 | 1002.9 |
| 20260505170003 | 78 | 180 | 14.0 | 19.0 | 0.00 | 0.00 | 0.00 | 79 | 1002.9 |
| 20260505165506 | 78 | 202 | 17.0 | 19.0 | 0.00 | 0.00 | 0.00 | 80 | 1003.3 |
| 20260505165003 | 77 | 202 | 12.0 | 15.0 | 0.00 | 0.00 | 0.00 | 82 | 1003.3 |
| 20260505164506 | 77 | 202 | 16.0 | 20.0 | 0.00 | 0.00 | 0.00 | 82 | 1003.3 |
| 20260505164003 | 76 | 202 | 16.0 | 19.0 | 0.00 | 0.00 | 0.00 | 83 | 1003.3 |
| 20260505163506 | 76 | 202 | 17.0 | 22.0 | 0.00 | 0.00 | 0.00 | 83 | 1003.3 |
| 20260505163003 | 76 | 180 | 19.0 | 24.0 | 0.00 | 0.00 | 0.00 | 83 | 1003.3 |
| 20260505162505 | 76 | 202 | 17.0 | 21.0 | 0.00 | 0.00 | 0.00 | 84 | 1003.3 |
| 20260505162008 | 76 | 202 | 15.0 | 17.0 | 0.00 | 0.00 | 0.00 | 85 | 1003.3 |
| 20260505161505 | 76 | 202 | 17.0 | 21.0 | 0.00 | 0.00 | 0.00 | 85 | 1003.3 |
| 20260505161008 | 76 | 180 | 16.0 | 20.0 | 0.00 | 0.00 | 0.00 | 85 | 1003.3 |
| 20260505160505 | 76 | 202 | 15.0 | 20.0 | 0.00 | 0.00 | 0.00 | 85 | 1002.9 |
| 20260505153007 | 76 | 202 | 19.0 | 24.0 | 0.00 | 0.00 | 0.00 | 83 | 1002.9 |
| 20260505152536 | 76 | 180 | 14.0 | 18.0 | 0.00 | 0.00 | 0.00 | 87 | 1002.9 |
| 20260505152006 | 75 | 202 | 17.0 | 21.0 | 0.00 | 0.00 | 0.00 | 85 | 1002.9 |
| 20260505151503 | 75 | 180 | 21.0 | 27.0 | 0.00 | 0.00 | 0.00 | 85 | 1002.9 |
| 20260505151007 | 75 | 180 | 18.0 | 21.0 | 0.00 | 0.00 | 0.00 | 86 | 1002.9 |
| 20260505150508 | 75 | 202 | 14.0 | 18.0 | 0.00 | 0.00 | 0.00 | 87 | 1003.3 |
| 20260505140503 | 72 | 180 | 16.0 | 19.0 | 0.00 | 0.00 | 0.00 | 96 | 1003.9 |
| 20260505125003 | 70 | 180 | 11.0 | 14.0 | 0.00 | 0.00 | 0.00 | 100 | 1004.3 |
| 20260505124506 | 69 | 180 | 12.0 | 17.0 | 0.00 | 0.00 | 0.00 | 100 | 1003.9 |
| 20260505124004 | 69 | 180 | 18.0 | 22.0 | 0.00 | 0.00 | 0.00 | 100 | 1003.9 |
| 20260505123506 | 69 | 180 | 14.0 | 19.0 | 0.00 | 0.00 | 0.00 | 100 | 1003.6 |
| 20260505123003 | 69 | 180 | 13.0 | 18.0 | 0.00 | 0.00 | 0.00 | 100 | 1003.6 |
| 20260505122506 | 69 | 180 | 13.0 | 17.0 | 0.00 | 0.00 | 0.00 | 100 | 1003.6 |
| 20260505122004 | 69 | 202 | 13.0 | 16.0 | 0.00 | 0.00 | 0.00 | 100 | 1003.6 |
| 20260505121506 | 69 | 180 | 14.0 | 20.0 | 0.00 | 0.00 | 0.00 | 100 | 1003.6 |
| 20260505121003 | 69 | 180 | 16.0 | 19.0 | 0.00 | 0.00 | 0.00 | 100 | 1003.6 |
| 20260505120506 | 69 | 180 | 12.0 | 16.0 | 0.00 | 0.00 | 0.00 | 100 | 1003.6 |
| 20260505120004 | 69 | 180 | 14.0 | 17.0 | 0.00 | 0.00 | 0.00 | 100 | 1003.6 |
| 20260505115506 | 69 | 180 | 15.0 | 20.0 | 0.00 | 0.00 | 0.00 | 100 | 1003.9 |
| 20260505115003 | 69 | 180 | 13.0 | 17.0 | 0.00 | 0.00 | 0.00 | 100 | 1003.9 |
| 20260505114506 | 69 | 202 | 14.0 | 19.0 | 0.00 | 0.00 | 0.00 | 100 | 1003.6 |
| 20260505114004 | 68 | 180 | 14.0 | 18.0 | 0.00 | 0.00 | 0.00 | 100 | 1003.6 |
| 20260505113506 | 68 | 180 | 12.0 | 15.0 | 0.00 | 0.00 | 0.00 | 100 | 1003.6 |
| 20260505113003 | 68 | 180 | 13.0 | 16.0 | 0.00 | 0.00 | 0.00 | 100 | 1003.6 |
| 20260505112506 | 68 | 180 | 11.0 | 14.0 | 0.00 | 0.00 | 0.00 | 100 | 1003.6 |
| 20260505112004 | 68 | 180 | 14.0 | 18.0 | 0.00 | 0.00 | 0.00 | 100 | 1003.6 |
| 20260505111533 | 68 | 180 | 13.0 | 18.0 | 0.00 | 0.00 | 0.00 | 100 | 1003.6 |
| 20260505111004 | 68 | 180 | 12.0 | 15.0 | 0.00 | 0.00 | 0.00 | 100 | 1003.6 |
| 20260505110507 | 68 | 180 | 12.0 | 16.0 | 0.00 | 0.00 | 0.00 | 100 | 1003.6 |
| 20260505102004 | 69 | 180 | 17.0 | 23.0 | 0.00 | 0.00 | 0.00 | 100 | 1003.6 |
| 20260505101503 | 69 | 180 | 16.0 | 19.0 | 0.00 | 0.00 | 0.00 | 100 | 1003.6 |
| 20260505101006 | 69 | 180 | 13.0 | 16.0 | 0.00 | 0.00 | 0.00 | 100 | 1003.6 |
| 20260505100503 | 69 | 180 | 12.0 | 16.0 | 0.00 | 0.00 | 0.00 | 100 | 1003.6 |
| 20260505100007 | 69 | 180 | 11.0 | 13.0 | 0.00 | 0.00 | 0.00 | 100 | 1003.6 |
| 20260505095502 | 70 | 180 | 12.0 | 15.0 | 0.00 | 0.00 | 0.00 | 100 | 1003.6 |
| 20260505095006 | 70 | 180 | 14.0 | 20.0 | 0.00 | 0.00 | 0.00 | 100 | 1003.6 |
| 20260505094503 | 70 | 180 | 16.0 | 21.0 | 0.00 | 0.00 | 0.00 | 100 | 1002.9 |
| 20260505094007 | 70 | 180 | 16.0 | 19.0 | 0.00 | 0.00 | 0.00 | 99 | 1002.9 |
| 20260505093504 | 70 | 157 | 15.0 | 19.0 | 0.00 | 0.00 | 0.00 | 99 | 1003.3 |
| 20260505093007 | 70 | 180 | 17.0 | 21.0 | 0.00 | 0.00 | 0.00 | 99 | 1003.3 |
| 20260505092504 | 70 | 157 | 14.0 | 18.0 | 0.00 | 0.00 | 0.00 | 99 | 1003.3 |
| 20260505092003 | 70 | 180 | 16.0 | 19.0 | 0.00 | 0.00 | 0.00 | 98 | 1003.3 |
| 20260505091506 | 70 | 180 | 15.0 | 18.0 | 0.00 | 0.00 | 0.00 | 97 | 1003.6 |
| 20260505091035 | 70 | 180 | 17.0 | 22.0 | 0.00 | 0.00 | 0.00 | 97 | 1003.6 |
| 20260505090506 | 70 | 180 | 16.0 | 20.0 | 0.00 | 0.00 | 0.00 | 97 | 1003.6 |
| 20260505090004 | 71 | 157 | 14.0 | 20.0 | 0.00 | 0.00 | 0.00 | 96 | 1003.6 |
| 20260505085506 | 71 | 180 | 17.0 | 20.0 | 0.00 | 0.00 | 0.00 | 96 | 1003.6 |
| 20260505085003 | 71 | 180 | 17.0 | 21.0 | 0.00 | 0.00 | 0.00 | 95 | 1003.6 |
| 20260505084506 | 71 | 180 | 16.0 | 19.0 | 0.00 | 0.00 | 0.00 | 94 | 1003.6 |
| 20260505084003 | 71 | 180 | 19.0 | 24.0 | 0.00 | 0.00 | 0.00 | 93 | 1003.6 |
| 20260505083507 | 71 | 202 | 18.0 | 23.0 | 0.00 | 0.00 | 0.00 | 92 | 1003.3 |
| 20260505083003 | 71 | 180 | 18.0 | 23.0 | 0.00 | 0.00 | 0.00 | 91 | 1003.3 |
| 20260505082506 | 72 | 180 | 18.0 | 21.0 | 0.00 | 0.00 | 0.00 | 90 | 1003.3 |
| 20260505082003 | 72 | 157 | 14.0 | 18.0 | 0.00 | 0.00 | 0.00 | 89 | 1003.3 |
| 20260505081506 | 72 | 180 | 18.0 | 21.0 | 0.00 | 0.00 | 0.00 | 89 | 1003.3 |
| 20260505081004 | 72 | 180 | 19.0 | 23.0 | 0.00 | 0.00 | 0.00 | 88 | 1003.3 |
| 20260505080506 | 72 | 180 | 18.0 | 22.0 | 0.00 | 0.00 | 0.00 | 87 | 1003.3 |
| 20260505080004 | 72 | 202 | 16.0 | 21.0 | 0.00 | 0.00 | 0.00 | 87 | 1003.3 |
| 20260505075506 | 72 | 180 | 14.0 | 18.0 | 0.00 | 0.00 | 0.00 | 87 | 1003.3 |
| 20260505075003 | 72 | 180 | 13.0 | 16.0 | 0.00 | 0.00 | 0.00 | 86 | 1003.3 |
| 20260505074506 | 72 | 180 | 18.0 | 22.0 | 0.00 | 0.00 | 0.00 | 85 | 1003.6 |
| 20260505074004 | 72 | 180 | 18.0 | 24.0 | 0.00 | 0.00 | 0.00 | 85 | 1003.6 |
| 20260505073506 | 72 | 180 | 17.0 | 21.0 | 0.00 | 0.00 | 0.00 | 84 | 1003.9 |
| 20260505073002 | 73 | 180 | 19.0 | 24.0 | 0.00 | 0.00 | 0.00 | 83 | 1003.9 |
| 20260505072507 | 73 | 180 | 14.0 | 18.0 | 0.00 | 0.00 | 0.00 | 83 | 1003.9 |
| 20260505072004 | 73 | 180 | 14.0 | 19.0 | 0.00 | 0.00 | 0.00 | 82 | 1003.9 |
| 20260505071504 | 73 | 180 | 18.0 | 21.0 | 0.00 | 0.00 | 0.00 | 82 | 1004.3 |
| 20260505071007 | 73 | 180 | 15.0 | 19.0 | 0.00 | 0.00 | 0.00 | 82 | 1004.3 |
| 20260505070531 | 73 | 180 | 19.0 | 23.0 | 0.00 | 0.00 | 0.00 | 80 | 1004.3 |
| 20260505070004 | 73 | 180 | 17.0 | 25.0 | 0.00 | 0.00 | 0.00 | 80 | 1004.3 |
| 20260505065506 | 73 | 180 | 16.0 | 22.0 | 0.00 | 0.00 | 0.00 | 80 | 1004.3 |
| 20260505065003 | 73 | 180 | 18.0 | 22.0 | 0.00 | 0.00 | 0.00 | 80 | 1004.3 |
| 20260505064506 | 73 | 180 | 18.0 | 22.0 | 0.00 | 0.00 | 0.00 | 79 | 1004.3 |
| 20260505064003 | 73 | 180 | 18.0 | 20.0 | 0.00 | 0.00 | 0.00 | 79 | 1004.3 |
| 20260505063506 | 73 | 180 | 15.0 | 18.0 | 0.00 | 0.00 | 0.00 | 79 | 1004.3 |
| 20260505063003 | 74 | 180 | 14.0 | 19.0 | 0.00 | 0.00 | 0.00 | 78 | 1004.3 |
| 20260505062506 | 74 | 180 | 14.0 | 20.0 | 0.00 | 0.00 | 0.00 | 77 | 1004.3 |
| 20260505062003 | 74 | 157 | 16.0 | 21.0 | 0.00 | 0.00 | 0.00 | 77 | 1004.3 |
| 20260505061506 | 74 | 180 | 17.0 | 26.0 | 0.00 | 0.00 | 0.00 | 77 | 1004.3 |
| 20260505061003 | 74 | 180 | 16.0 | 20.0 | 0.00 | 0.00 | 0.00 | 75 | 1004.3 |
| 20260505060507 | 74 | 157 | 14.0 | 18.0 | 0.00 | 0.00 | 0.00 | 76 | 1004.3 |
| 20260505060003 | 74 | 180 | 17.0 | 20.0 | 0.00 | 0.00 | 0.00 | 76 | 1004.3 |
| 20260505055506 | 74 | 180 | 16.0 | 19.0 | 0.00 | 0.00 | 0.00 | 77 | 1004.3 |
| 20260505055003 | 74 | 157 | 15.0 | 19.0 | 0.00 | 0.00 | 0.00 | 77 | 1004.3 |
| 20260505054506 | 74 | 180 | 16.0 | 19.0 | 0.00 | 0.00 | 0.00 | 77 | 1004.3 |
| 20260505054003 | 74 | 180 | 15.0 | 17.0 | 0.00 | 0.00 | 0.00 | 78 | 1004.3 |
| 20260505053506 | 74 | 157 | 14.0 | 17.0 | 0.00 | 0.00 | 0.00 | 78 | 1004.3 |
| 20260505053003 | 74 | 180 | 12.0 | 14.0 | 0.00 | 0.00 | 0.00 | 79 | 1004.3 |
| 20260505052506 | 74 | 202 | 14.0 | 18.0 | 0.00 | 0.00 | 0.00 | 79 | 1004.3 |
| 20260505052004 | 74 | 157 | 15.0 | 21.0 | 0.00 | 0.00 | 0.00 | 79 | 1004.3 |
| 20260505051506 | 74 | 180 | 13.0 | 15.0 | 0.00 | 0.00 | 0.00 | 79 | 1004.6 |
| 20260505051003 | 74 | 157 | 13.0 | 18.0 | 0.00 | 0.00 | 0.00 | 79 | 1004.6 |
| 20260505050506 | 73 | 157 | 16.0 | 19.0 | 0.00 | 0.00 | 0.00 | 80 | 1004.6 |
| 20260505041505 | 73 | 157 | 13.0 | 17.0 | 0.00 | 0.00 | 0.00 | 80 | 1004.9 |
| 20260505041002 | 73 | 157 | 12.0 | 15.0 | 0.00 | 0.00 | 0.00 | 80 | 1004.9 |
| 20260505040505 | 73 | 157 | 11.0 | 14.0 | 0.00 | 0.00 | 0.00 | 80 | 1004.9 |
| 20260505040011 | 73 | 157 | 15.0 | 19.0 | 0.00 | 0.00 | 0.00 | 80 | 1004.9 |
| 20260505035507 | 73 | 157 | 14.0 | 18.0 | 0.00 | 0.00 | 0.00 | 79 | 1004.9 |
| 20260505035004 | 73 | 180 | 12.0 | 16.0 | 0.00 | 0.00 | 0.00 | 78 | 1004.9 |
| 20260505034507 | 74 | 157 | 12.0 | 18.0 | 0.00 | 0.00 | 0.00 | 78 | 1004.6 |
| 20260505034004 | 74 | 135 | 14.0 | 19.0 | 0.00 | 0.00 | 0.00 | 78 | 1004.6 |
| 20260505033503 | 74 | 157 | 13.0 | 19.0 | 0.00 | 0.00 | 0.00 | 77 | 1004.6 |
| 20260505033006 | 74 | 157 | 14.0 | 18.0 | 0.00 | 0.00 | 0.00 | 77 | 1004.6 |
| 20260505032504 | 74 | 157 | 12.0 | 15.0 | 0.00 | 0.00 | 0.00 | 76 | 1004.6 |
| 20260505032007 | 74 | 157 | 14.0 | 19.0 | 0.00 | 0.00 | 0.00 | 76 | 1004.6 |
| 20260505031504 | 74 | 157 | 10.0 | 15.0 | 0.00 | 0.00 | 0.00 | 75 | 1004.6 |
| 20260505031005 | 74 | 157 | 14.0 | 19.0 | 0.00 | 0.00 | 0.00 | 75 | 1004.6 |
| 20260505030510 | 74 | 157 | 13.0 | 19.0 | 0.00 | 0.00 | 0.00 | 75 | 1004.6 |
| 20260505030009 | 74 | 157 | 16.0 | 22.0 | 0.00 | 0.00 | 0.00 | 75 | 1004.6 |
| 20260505025532 | 74 | 157 | 14.0 | 18.0 | 0.00 | 0.00 | 0.00 | 76 | 1004.6 |
| 20260505025008 | 74 | 157 | 9.0 | 16.0 | 0.00 | 0.00 | 0.00 | 76 | 1004.6 |
| 20260505024504 | 74 | 157 | 14.0 | 22.0 | 0.00 | 0.00 | 0.00 | 76 | 1004.6 |
| 20260505024007 | 74 | 157 | 15.0 | 20.0 | 0.00 | 0.00 | 0.00 | 76 | 1004.6 |
| 20260505023505 | 74 | 157 | 12.0 | 15.0 | 0.00 | 0.00 | 0.00 | 76 | 1004.6 |
| 20260505023007 | 74 | 157 | 13.0 | 18.0 | 0.00 | 0.00 | 0.00 | 76 | 1004.6 |
| 20260505022504 | 74 | 157 | 14.0 | 19.0 | 0.00 | 0.00 | 0.00 | 76 | 1004.6 |
| 20260505022007 | 74 | 157 | 11.0 | 14.0 | 0.00 | 0.00 | 0.00 | 76 | 1004.6 |
| 20260505021504 | 74 | 157 | 14.0 | 20.0 | 0.00 | 0.00 | 0.00 | 76 | 1004.6 |
| 20260505021007 | 74 | 180 | 15.0 | 18.0 | 0.00 | 0.00 | 0.00 | 76 | 1004.6 |
| 20260505020504 | 74 | 157 | 14.0 | 21.0 | 0.00 | 0.00 | 0.00 | 76 | 1004.6 |
| 20260505020008 | 74 | 157 | 13.0 | 17.0 | 0.00 | 0.00 | 0.00 | 75 | 1004.6 |
| 20260505015504 | 74 | 180 | 14.0 | 19.0 | 0.00 | 0.00 | 0.00 | 75 | 1004.3 |
| 20260505015007 | 74 | 157 | 13.0 | 19.0 | 0.00 | 0.00 | 0.00 | 74 | 1004.3 |
| 20260505014504 | 74 | 180 | 14.0 | 16.0 | 0.00 | 0.00 | 0.00 | 74 | 1004.3 |
| 20260505014007 | 74 | 157 | 12.0 | 17.0 | 0.00 | 0.00 | 0.00 | 73 | 1004.3 |
| 20260505013504 | 75 | 157 | 15.0 | 21.0 | 0.00 | 0.00 | 0.00 | 73 | 1004.3 |
| 20260505013007 | 75 | 157 | 11.0 | 15.0 | 0.00 | 0.00 | 0.00 | 72 | 1004.3 |
| 20260505012504 | 75 | 157 | 12.0 | 15.0 | 0.00 | 0.00 | 0.00 | 72 | 1004.3 |